Estación de Tierras Nobles

Ultimos registro cada 15 minutos 43
Estación Fecha / Hora Temperatura Humedad Lluvia Velocidad Dirección Radiación Presion
43 Tierras Nobles 10-05-2026 10:30 14,1 55 0 1,3 203 413 1015,7
42 Tierras Nobles 10-05-2026 10:15 13,8 54 0 3,6 201 383 1015,8
41 Tierras Nobles 10-05-2026 10:00 13,5 54 0 2,7 193 350 1015,8
40 Tierras Nobles 10-05-2026 09:45 13,2 54 0 1,8 334 315 1015,9
39 Tierras Nobles 10-05-2026 09:30 12,9 54 0 5,4 166 276 1015,9
38 Tierras Nobles 10-05-2026 09:15 12,6 56 0 2,7 205 236 1016,1
37 Tierras Nobles 10-05-2026 09:00 12,2 55 0 1,3 170 190 1016,2
36 Tierras Nobles 10-05-2026 08:45 11,9 54 0 0,9 119 139 1016,1
35 Tierras Nobles 10-05-2026 08:30 11,3 55 0 1,3 187 21 1016,2
34 Tierras Nobles 10-05-2026 08:15 11,1 56 0 4,9 213 16 1016,2
33 Tierras Nobles 10-05-2026 08:00 10,9 56 0 4,9 201 12 1016
32 Tierras Nobles 10-05-2026 07:45 10,8 56 0 4,5 207 9 1016
31 Tierras Nobles 10-05-2026 07:30 10,8 56 0 4,9 207 0 1015,9
30 Tierras Nobles 10-05-2026 07:15 10,8 56 0 6,3 215 0 1016
29 Tierras Nobles 10-05-2026 07:00 10,8 56 0 6,7 189 0 1015,9
28 Tierras Nobles 10-05-2026 06:45 10,8 57 0 5,4 208 0 1016,1
27 Tierras Nobles 10-05-2026 06:30 10,9 57 0 8,5 221 0 1016,2
26 Tierras Nobles 10-05-2026 06:15 11 57 0 3,1 175 0 1016,2
25 Tierras Nobles 10-05-2026 06:00 10,8 58 0 2,7 180 0 1016,2
24 Tierras Nobles 10-05-2026 05:45 10,7 58 0 1,8 107 0 1016,1
23 Tierras Nobles 10-05-2026 05:30 10,8 58 0 4,5 211 0 1016
22 Tierras Nobles 10-05-2026 05:15 10,7 58 0 1,8 162 0 1016,2
21 Tierras Nobles 10-05-2026 05:00 10,6 59 0 1,3 213 0 1016,2
20 Tierras Nobles 10-05-2026 04:45 10,6 59 0 1,3 175 0 1016,3
19 Tierras Nobles 10-05-2026 04:30 10,8 59 0 0,9 180 0 1016
18 Tierras Nobles 10-05-2026 04:15 10,8 59 0 4 188 0 1016
17 Tierras Nobles 10-05-2026 04:00 10,6 61 0 1,8 144 0 1016,4
16 Tierras Nobles 10-05-2026 03:45 10,4 62 0 3,6 209 0 1016,7
15 Tierras Nobles 10-05-2026 03:30 10,3 63 0 1,8 198 0 1017
14 Tierras Nobles 10-05-2026 03:15 10,4 63 0 0,9 211 0 1017,1
13 Tierras Nobles 10-05-2026 03:00 10,4 64 0 1,8 84 0 1017,3
12 Tierras Nobles 10-05-2026 02:45 10,5 63 0 2,2 190 0 1017,3
11 Tierras Nobles 10-05-2026 02:30 10,6 63 0 2,7 155 0 1017,3
10 Tierras Nobles 10-05-2026 02:15 10,8 63 0 3,6 207 0 1017,4
9 Tierras Nobles 10-05-2026 02:00 11,1 61 0 1,8 198 0 1017,5
8 Tierras Nobles 10-05-2026 01:45 11,4 59 0 1,8 146 0 1017,7
7 Tierras Nobles 10-05-2026 01:30 11,3 59 0 1,3 230 0 1017,6
6 Tierras Nobles 10-05-2026 01:15 11,6 58 0 1,3 73 0 1017,6
5 Tierras Nobles 10-05-2026 01:00 11,6 58 0 0,9 159 0 1017,5
4 Tierras Nobles 10-05-2026 00:45 11,6 58 0 2,7 217 0 1017,7
3 Tierras Nobles 10-05-2026 00:30 11,7 58 0 2,7 138 0 1017,9
2 Tierras Nobles 10-05-2026 00:15 11,8 57 0 1,8 184 0 1017,9
1 Tierras Nobles 10-05-2026 00:00 11,8 57 0 4 219 0 1017,9